GSAT0102 (GALILEO-FM2)

Last updated on Wed Jul 16 2025 00:02:34 GMT+0000 (Coordinated Universal Time)

1 37847U 11060B 25196.36604183 -.00000075 00000+0 00000+0 0 9992 2 37847 57.0907 350.8953 0002171 7.0432 171.8168 1.70475843 85384
UTC large
Height (km)
Speed (km/s)
/
Latitude / Longitude
Inclination (degrees)
Orbital Period (minutes)
Azimuth
Elevation
Range (km)
Doppler Factor

Next 0 passes for location: London (51.5072 / 0.1276)

Sorry there are no passes over London.